| time (UTC) | temp F | wind direction | speed knots | gust knots | rain 1hr in | rain 24hr in | rain mn in | humidity % | barometer mb |
| 20260906144551 | 94 | 173 | 3.5 | 11.3 | 0.00 | 0.00 | 0.00 | 40 | 1019.8 |
| 20260906143054 | 94 | 199 | 5.2 | 9.6 | 0.00 | 0.00 | 0.00 | 39 | 1019.9 |
| 20260906141547 | 95 | 170 | 2.6 | 11.3 | 0.00 | 0.00 | 0.00 | 39 | 1019.9 |
| 20260906140104 | 95 | 198 | 3.5 | 11.3 | 0.00 | 0.00 | 0.00 | 39 | 1020.1 |
| 20260906134603 | 95 | 168 | 5.2 | 8.7 | 0.00 | 0.00 | 0.00 | 39 | 1020.0 |
| 20260906133054 | 95 | 223 | 4.3 | 11.3 | 0.00 | 0.00 | 0.00 | 38 | 1020.0 |
| 20260906131547 | 94 | 227 | 2.6 | 11.3 | 0.00 | 0.00 | 0.00 | 38 | 1020.1 |
| 20260906130109 | 95 | 215 | 3.5 | 12.2 | 0.00 | 0.00 | 0.00 | 37 | 1020.1 |
| 20260906124553 | 95 | 232 | 4.3 | 8.7 | 0.00 | 0.00 | 0.00 | 34 | 1020.1 |
| 20260906123049 | 95 | 183 | 4.3 | 11.3 | 0.00 | 0.00 | 0.00 | 34 | 1020.1 |
| 20260906121607 | 95 | 229 | 2.6 | 9.6 | 0.00 | 0.00 | 0.00 | 34 | 1020.2 |
| 20260906120054 | 94 | 172 | 3.5 | 9.6 | 0.00 | 0.00 | 0.00 | 34 | 1020.4 |
| 20260906114604 | 94 | 214 | 2.6 | 8.7 | 0.00 | 0.00 | 0.00 | 35 | 1020.4 |
| 20260906113103 | 93 | 186 | 3.5 | 8.7 | 0.00 | 0.00 | 0.00 | 35 | 1020.5 |
| 20260906111556 | 93 | 140 | 2.6 | 9.6 | 0.00 | 0.00 | 0.00 | 35 | 1020.6 |
| 20260906110050 | 92 | 201 | 4.3 | 8.7 | 0.00 | 0.00 | 0.00 | 35 | 1020.7 |
| 20260906104548 | 91 | 193 | 2.6 | 8.7 | 0.00 | 0.00 | 0.00 | 37 | 1020.8 |
| 20260906103053 | 91 | 165 | 4.3 | 8.7 | 0.00 | 0.00 | 0.00 | 38 | 1020.9 |
| 20260906101551 | 90 | 225 | 2.6 | 9.6 | 0.00 | 0.00 | 0.00 | 39 | 1020.8 |
| 20260906100049 | 90 | 208 | 2.6 | 7.0 | 0.00 | 0.00 | 0.00 | 39 | 1021.1 |
| 20260906094550 | 89 | 150 | 3.5 | 7.0 | 0.00 | 0.00 | 0.00 | 39 | 1021.1 |
| 20260906093053 | 89 | 150 | 2.6 | 5.2 | 0.00 | 0.00 | 0.00 | 40 | 1021.3 |
| 20260906091552 | 87 | 130 | 1.7 | 6.1 | 0.00 | 0.00 | 0.00 | 43 | 1021.3 |
| 20260906090051 | 84 | 268 | 0.0 | 1.7 | 0.00 | 0.00 | 0.00 | 46 | 1021.3 |
| 20260906084557 | 83 | 259 | 0.9 | 2.6 | 0.00 | 0.00 | 0.00 | 49 | 1021.3 |
| 20260906083054 | 82 | 332 | 0.9 | 5.2 | 0.00 | 0.00 | 0.00 | 52 | 1021.3 |
| 20260906081555 | 80 | 48 | 0.9 | 6.1 | 0.00 | 0.00 | 0.00 | 54 | 1021.2 |
| 20260906080050 | 79 | 103 | 2.6 | 6.1 | 0.00 | 0.00 | 0.00 | 56 | 1021.3 |
| 20260906074550 | 77 | 83 | 1.7 | 4.3 | 0.00 | 0.00 | 0.00 | 58 | 1021.3 |
| 20260906073054 | 75 | 54 | 0.9 | 4.3 | 0.00 | 0.00 | 0.00 | 62 | 1021.5 |
| 20260906071559 | 73 | 136 | 2.6 | 7.0 | 0.00 | 0.00 | 0.00 | 65 | 1021.6 |
| 20260906070059 | 71 | 347 | 2.6 | 7.0 | 0.00 | 0.00 | 0.00 | 67 | 1021.5 |
| 20260906064555 | 70 | 63 | 0.9 | 3.5 | 0.00 | 0.00 | 0.00 | 70 | 1021.4 |
| 20260906063052 | 67 | 0 | 0.0 | 1.7 | 0.00 | 0.00 | 0.00 | 70 | 1021.5 |
| 20260906061553 | 66 | 0 | 0.0 | 1.7 | 0.00 | 0.00 | 0.00 | 69 | 1021.3 |
| 20260906060108 | 66 | 0 | 0.0 | 0.0 | 0.00 | 0.00 | 0.00 | 70 | 1021.1 |
| 20260906054554 | 66 | 0 | 0.0 | 0.9 | 0.00 | 0.00 | 0.00 | 69 | 1021.0 |
| 20260906053048 | 66 | 149 | 0.0 | 0.9 | 0.00 | 0.00 | 0.00 | 69 | 1020.9 |
| 20260906051553 | 66 | 219 | 0.0 | 1.7 | 0.00 | 0.00 | 0.00 | 69 | 1021.0 |
| 20260906050110 | 67 | 0 | 0.0 | 0.0 | 0.00 | 0.00 | 0.00 | 69 | 1020.9 |
| 20260906044549 | 67 | 0 | 0.0 | 0.9 | 0.00 | 0.00 | 0.00 | 68 | 1020.9 |
| 20260906043100 | 69 | 0 | 0.0 | 2.6 | 0.00 | 0.00 | 0.00 | 69 | 1021.0 |
| 20260906041550 | 68 | 12 | 0.0 | 1.7 | 0.00 | 0.00 | 0.00 | 70 | 1021.0 |
| 20260906040055 | 68 | 0 | 0.0 | 1.7 | 0.00 | 0.00 | 0.00 | 70 | 1021.0 |
| 20260906034557 | 67 | 0 | 0.0 | 2.6 | 0.00 | 0.00 | 0.00 | 68 | 1021.1 |
| 20260906033056 | 67 | 0 | 0.0 | 0.0 | 0.00 | 0.00 | 0.00 | 68 | 1021.2 |
| 20260906031613 | 67 | 0 | 0.0 | 0.0 | 0.00 | 0.00 | 0.00 | 69 | 1021.4 |
| 20260906030051 | 67 | 0 | 0.0 | 0.0 | 0.00 | 0.00 | 0.00 | 67 | 1021.4 |
| 20260906024603 | 67 | 0 | 0.0 | 0.0 | 0.00 | 0.00 | 0.00 | 67 | 1021.5 |
| 20260906023106 | 67 | 0 | 0.0 | 0.0 | 0.00 | 0.00 | 0.00 | 67 | 1021.4 |
| 20260906021551 | 67 | 0 | 0.0 | 0.0 | 0.00 | 0.00 | 0.00 | 67 | 1021.4 |
| 20260906020101 | 67 | 0 | 0.0 | 0.0 | 0.00 | 0.00 | 0.00 | 67 | 1021.4 |
| 20260906014554 | 67 | 0 | 0.0 | 0.0 | 0.00 | 0.00 | 0.00 | 67 | 1021.4 |
| 20260906013050 | 68 | 0 | 0.0 | 0.0 | 0.00 | 0.00 | 0.00 | 65 | 1021.5 |
| 20260906011553 | 68 | 0 | 0.0 | 0.0 | 0.00 | 0.00 | 0.00 | 64 | 1021.6 |
| 20260906004558 | 68 | 0 | 0.0 | 0.0 | 0.00 | 0.00 | 0.00 | 66 | 1021.7 |
| 20260906003055 | 69 | 0 | 0.0 | 0.0 | 0.00 | 0.00 | 0.00 | 67 | 1021.8 |
| 20260906001551 | 69 | 0 | 0.0 | 0.0 | 0.00 | 0.00 | 0.00 | 66 | 1021.8 |
| 20260906000052 | 69 | 0 | 0.0 | 0.0 | 0.00 | 0.00 | 0.00 | 66 | 1021.8 |
| 20260905234556 | 70 | 0 | 0.0 | 0.0 | 0.00 | 0.00 | 0.00 | 66 | 1021.9 |
| 20260905233056 | 70 | 0 | 0.0 | 0.0 | 0.00 | 0.00 | 0.00 | 66 | 1022.0 |
| 20260905231552 | 70 | 0 | 0.0 | 0.0 | 0.00 | 0.00 | 0.00 | 66 | 1022.1 |
| 20260905230047 | 70 | 0 | 0.0 | 0.0 | 0.00 | 0.00 | 0.00 | 65 | 1022.3 |
| 20260905224553 | 71 | 0 | 0.0 | 0.0 | 0.00 | 0.00 | 0.00 | 64 | 1022.2 |
| 20260905223051 | 71 | 0 | 0.0 | 0.0 | 0.00 | 0.00 | 0.00 | 65 | 1022.2 |
| 20260905221602 | 72 | 0 | 0.0 | 0.0 | 0.00 | 0.00 | 0.00 | 64 | 1022.2 |
| 20260905220056 | 72 | 0 | 0.0 | 0.9 | 0.00 | 0.00 | 0.00 | 64 | 1022.1 |
| 20260905214602 | 73 | 0 | 0.0 | 0.0 | 0.00 | 0.00 | 0.00 | 64 | 1022.1 |
| 20260905213048 | 73 | 0 | 0.0 | 2.6 | 0.00 | 0.00 | 0.00 | 64 | 1022.1 |
| 20260905211555 | 73 | 0 | 0.0 | 0.0 | 0.00 | 0.00 | 0.00 | 63 | 1022.2 |
| 20260905210103 | 74 | 0 | 0.0 | 0.0 | 0.00 | 0.00 | 0.00 | 62 | 1022.2 |
| 20260905204546 | 74 | 0 | 0.0 | 0.0 | 0.00 | 0.00 | 0.00 | 62 | 1022.2 |
| 20260905203053 | 75 | 0 | 0.0 | 0.0 | 0.00 | 0.00 | 0.00 | 60 | 1022.2 |
| 20260905201552 | 76 | 0 | 0.0 | 0.0 | 0.00 | 0.00 | 0.00 | 59 | 1022.2 |
| 20260905200113 | 76 | 0 | 0.0 | 0.0 | 0.00 | 0.00 | 0.00 | 58 | 1022.1 |
| 20260905194548 | 77 | 0 | 0.0 | 0.0 | 0.00 | 0.00 | 0.00 | 57 | 1022.1 |
| 20260905193051 | 78 | 0 | 0.0 | 0.0 | 0.00 | 0.00 | 0.00 | 56 | 1022.1 |
| 20260905191548 | 79 | 0 | 0.0 | 0.0 | 0.00 | 0.00 | 0.00 | 54 | 1022.1 |
| 20260905190054 | 80 | 0 | 0.0 | 0.0 | 0.00 | 0.00 | 0.00 | 52 | 1021.9 |
| 20260905184551 | 81 | 0 | 0.0 | 0.0 | 0.00 | 0.00 | 0.00 | 50 | 1021.8 |
| 20260905183053 | 82 | 0 | 0.0 | 0.0 | 0.00 | 0.00 | 0.00 | 49 | 1021.7 |
| 20260905181554 | 83 | 0 | 0.0 | 0.0 | 0.00 | 0.00 | 0.00 | 46 | 1021.7 |
| 20260905180426 | 84 | 0 | 0.9 | 3.5 | 0.00 | 0.00 | 0.00 | 46 | 1021.5 |
| 20260905174555 | 85 | 0 | 0.0 | 5.2 | 0.00 | 0.00 | 0.00 | 44 | 1021.4 |
| 20260905173112 | 86 | 160 | 1.7 | 6.1 | 0.00 | 0.00 | 0.00 | 43 | 1021.4 |
| 20260905171554 | 88 | 111 | 3.5 | 7.0 | 0.00 | 0.00 | 0.00 | 42 | 1021.3 |
| 20260905170049 | 89 | 137 | 3.5 | 7.8 | 0.00 | 0.00 | 0.00 | 41 | 1021.1 |
| 20260905164602 | 89 | 165 | 2.6 | 8.7 | 0.00 | 0.00 | 0.00 | 40 | 1021.0 |
| 20260905163052 | 90 | 183 | 4.3 | 7.8 | 0.00 | 0.00 | 0.00 | 39 | 1020.9 |
| 20260905161601 | 90 | 157 | 4.3 | 9.6 | 0.00 | 0.00 | 0.00 | 39 | 1020.9 |
| 20260905160100 | 91 | 160 | 3.5 | 7.0 | 0.00 | 0.00 | 0.00 | 38 | 1021.0 |
| 20260905154555 | 91 | 153 | 4.3 | 10.4 | 0.00 | 0.00 | 0.00 | 38 | 1020.9 |
| 20260905153100 | 91 | 166 | 4.3 | 11.3 | 0.00 | 0.00 | 0.00 | 38 | 1021.0 |
| 20260905150055 | 92 | 139 | 5.2 | 10.4 | 0.00 | 0.00 | 0.00 | 36 | 1021.1 |